Time,TemperatureF,DewpointF,PressureIn,WindDirection,WindDirectionDegrees,WindSpeedMPH,WindSpeedGustMPH,Humidity,HourlyPrecipIn,Conditions,Clouds,dailyrainin,SoftwareType,DateUTC
2013-02-14 00:04:00,37.2,30.4,29.03,SW,217,0.0,0.0,76,0.00,,---,0.20,VWS V14.00,2013-02-14 06:04:00,
2013-02-14 00:05:00,37.2,30.4,29.03,SW,217,0.0,0.0,76,0.00,,---,0.00,VWS V14.00,2013-02-14 06:05:00,
2013-02-14 00:10:00,36.3,29.8,29.03,SW,217,0.0,0.0,77,0.00,,---,0.00,VWS V14.00,2013-02-14 06:10:00,
2013-02-14 00:13:00,36.3,29.8,29.03,SW,217,0.0,0.0,77,0.00,,---,0.00,VWS V14.00,2013-02-14 06:13:00,
2013-02-14 00:16:00,36.1,29.6,29.03,SW,217,0.0,0.0,77,0.00,,---,0.00,VWS V14.00,2013-02-14 06:16:00,
2013-02-14 00:19:00,36.1,29.6,29.03,SW,217,0.0,0.0,77,0.00,,---,0.00,VWS V14.00,2013-02-14 06:19:00,
2013-02-14 00:20:00,36.5,30.3,29.03,SW,217,0.0,0.0,78,0.00,,---,0.00,VWS V14.00,2013-02-14 06:20:00,
2013-02-14 00:22:00,36.5,30.3,29.03,SW,217,0.0,0.0,78,0.00,,---,0.00,VWS V14.00,2013-02-14 06:22:00,
2013-02-14 00:25:00,36.8,30.6,29.03,SW,217,0.0,0.0,78,0.00,,---,0.00,VWS V14.00,2013-02-14 06:25:00,
2013-02-14 00:28:00,36.8,30.6,29.03,SW,217,0.0,0.0,78,0.00,,---,0.00,VWS V14.00,2013-02-14 06:28:00,
2013-02-14 00:31:00,37.0,30.8,29.03,SW,217,0.0,0.0,78,0.00,,---,0.00,VWS V14.00,2013-02-14 06:31:00,
2013-02-14 00:37:00,37.0,30.8,29.03,SW,217,0.0,0.0,78,0.00,,---,0.00,VWS V14.00,2013-02-14 06:37:00,
2013-02-14 00:40:00,36.8,30.3,29.03,SW,217,0.0,0.0,77,0.00,,---,0.00,VWS V14.00,2013-02-14 06:40:00,
2013-02-14 00:46:00,36.8,30.3,29.03,SW,217,0.0,0.0,77,0.00,,---,0.00,VWS V14.00,2013-02-14 06:46:00,
2013-02-14 00:49:00,35.9,29.4,29.03,SW,217,0.0,0.0,77,0.00,,---,0.00,VWS V14.00,2013-02-14 06:49:00,
2013-02-14 00:50:00,35.9,29.4,29.03,SW,217,0.0,0.0,77,0.00,,---,0.00,VWS V14.00,2013-02-14 06:50:00,
2013-02-14 00:52:00,35.9,29.4,29.03,SW,217,0.0,0.0,77,0.00,,---,0.00,VWS V14.00,2013-02-14 06:52:00,
2013-02-14 00:55:00,35.6,29.1,29.03,SW,217,0.0,0.0,77,0.00,,---,0.00,VWS V14.00,2013-02-14 06:55:00,
2013-02-14 00:58:00,35.6,29.1,29.03,SW,217,0.0,0.0,77,0.00,,---,0.00,VWS V14.00,2013-02-14 06:58:00,
2013-02-14 01:01:00,35.6,29.1,29.03,SW,217,0.0,0.0,77,0.00,,---,0.00,VWS V14.00,2013-02-14 07:01:00,
2013-02-14 01:04:00,35.4,28.9,29.03,SW,217,0.0,0.0,77,0.00,,---,0.00,VWS V14.00,2013-02-14 07:04:00,
2013-02-14 01:10:00,35.4,28.9,29.03,SW,217,0.0,0.0,77,0.00,,---,0.00,VWS V14.00,2013-02-14 07:10:00,
2013-02-14 01:13:00,34.9,28.7,29.03,SW,217,0.0,0.0,78,0.00,,---,0.00,VWS V14.00,2013-02-14 07:13:00,
2013-02-14 01:19:00,34.9,28.7,29.03,SW,217,0.0,0.0,78,0.00,,---,0.00,VWS V14.00,2013-02-14 07:19:00,
2013-02-14 01:22:00,35.4,29.5,29.06,SW,217,0.0,0.0,79,0.00,,---,0.00,VWS V14.00,2013-02-14 07:22:00,
2013-02-14 01:28:00,35.6,29.4,29.06,SW,217,0.0,0.0,78,0.00,,---,0.00,VWS V14.00,2013-02-14 07:28:00,
2013-02-14 01:34:00,35.6,29.4,29.06,SW,217,0.0,0.0,78,0.00,,---,0.00,VWS V14.00,2013-02-14 07:34:00,
2013-02-14 01:35:00,35.6,29.4,29.06,SW,217,0.0,0.0,78,0.00,,---,0.00,VWS V14.00,2013-02-14 07:35:00,
2013-02-14 01:37:00,35.6,29.4,29.06,SW,217,0.0,0.0,78,0.00,,---,0.00,VWS V14.00,2013-02-14 07:37:00,
2013-02-14 01:43:00,35.6,29.4,29.06,SW,217,0.0,0.0,78,0.00,,---,0.00,VWS V14.00,2013-02-14 07:43:00,
2013-02-14 01:49:00,35.0,29.2,29.06,SW,217,0.0,0.0,79,0.00,,---,0.00,VWS V14.00,2013-02-14 07:49:00,
2013-02-14 01:50:00,35.0,29.2,29.06,SW,217,0.0,0.0,79,0.00,,---,0.00,VWS V14.00,2013-02-14 07:50:00,
2013-02-14 01:52:00,35.0,29.2,29.06,SW,217,0.0,0.0,79,0.00,,---,0.00,VWS V14.00,2013-02-14 07:52:00,
2013-02-14 01:58:00,35.0,29.5,29.06,SW,217,0.0,0.0,80,0.00,,---,0.00,VWS V14.00,2013-02-14 07:58:00,
2013-02-14 02:01:00,35.0,29.5,29.06,SW,217,0.0,0.0,80,0.00,,---,0.00,VWS V14.00,2013-02-14 08:01:00,
2013-02-14 02:08:00,35.0,29.5,29.06,SW,217,0.0,0.0,80,0.00,,---,0.00,VWS V14.00,2013-02-14 08:08:00,
2013-02-14 02:11:00,35.0,29.5,29.06,SW,217,0.0,0.0,80,0.00,,---,0.00,VWS V14.00,2013-02-14 08:11:00,
2013-02-14 02:14:00,34.9,29.3,29.03,SW,217,0.0,0.0,80,0.00,,---,0.00,VWS V14.00,2013-02-14 08:14:00,
2013-02-14 02:20:00,34.7,29.1,29.06,SW,217,0.0,0.0,80,0.00,,---,0.00,VWS V14.00,2013-02-14 08:20:00,
2013-02-14 02:26:00,34.3,28.8,29.06,SW,217,0.0,0.0,80,0.00,,---,0.00,VWS V14.00,2013-02-14 08:26:00,
2013-02-14 02:29:00,34.3,28.8,29.06,SW,217,0.0,0.0,80,0.00,,---,0.00,VWS V14.00,2013-02-14 08:29:00,
2013-02-14 02:32:00,34.3,28.8,29.06,SW,217,0.0,0.0,80,0.00,,---,0.00,VWS V14.00,2013-02-14 08:32:00,
2013-02-14 02:35:00,34.3,28.8,29.06,SW,217,0.0,0.0,80,0.00,,---,0.00,VWS V14.00,2013-02-14 08:35:00,
2013-02-14 02:38:00,34.1,28.9,29.06,SW,217,0.0,0.0,81,0.00,,---,0.00,VWS V14.00,2013-02-14 08:38:00,
2013-02-14 02:44:00,34.0,28.8,29.06,SW,217,0.0,0.0,81,0.00,,---,0.00,VWS V14.00,2013-02-14 08:44:00,
2013-02-14 02:50:00,34.0,29.0,29.06,SW,217,0.0,0.0,82,0.00,,---,0.00,VWS V14.00,2013-02-14 08:50:00,
2013-02-14 02:53:00,34.0,29.0,29.06,SW,217,0.0,0.0,82,0.00,,---,0.00,VWS V14.00,2013-02-14 08:53:00,
2013-02-14 02:56:00,33.8,29.2,29.06,SW,217,0.0,0.0,83,0.00,,---,0.00,VWS V14.00,2013-02-14 08:56:00,
2013-02-14 02:59:00,33.6,29.0,29.03,SW,217,0.0,0.0,83,0.00,,---,0.00,VWS V14.00,2013-02-14 08:59:00,
2013-02-14 03:02:00,33.6,29.0,29.03,SW,217,0.0,0.0,83,0.00,,---,0.00,VWS V14.00,2013-02-14 09:02:00,
2013-02-14 03:05:00,33.8,29.2,29.06,SW,217,0.0,0.0,83,0.00,,---,0.00,VWS V14.00,2013-02-14 09:05:00,
2013-02-14 03:08:00,34.0,29.4,29.06,SW,217,0.0,0.0,83,0.00,,---,0.00,VWS V14.00,2013-02-14 09:08:00,
2013-02-14 03:11:00,34.0,29.4,29.06,SW,217,0.0,0.0,83,0.00,,---,0.00,VWS V14.00,2013-02-14 09:11:00,
2013-02-14 03:17:00,34.0,29.4,29.06,SW,217,0.0,0.0,83,0.00,,---,0.00,VWS V14.00,2013-02-14 09:17:00,
2013-02-14 03:20:00,33.6,29.0,29.06,SW,217,0.0,0.0,83,0.00,,---,0.00,VWS V14.00,2013-02-14 09:20:00,
2013-02-14 03:26:00,33.6,29.0,29.06,SW,217,0.0,0.0,83,0.00,,---,0.00,VWS V14.00,2013-02-14 09:26:00,
2013-02-14 03:29:00,33.8,29.2,29.06,SW,217,0.0,0.0,83,0.00,,---,0.00,VWS V14.00,2013-02-14 09:29:00,
2013-02-14 03:32:00,33.8,29.2,29.06,SW,217,0.0,0.0,83,0.00,,---,0.00,VWS V14.00,2013-02-14 09:32:00,
2013-02-14 03:35:00,33.8,29.2,29.03,SW,217,0.0,0.0,83,0.00,,---,0.00,VWS V14.00,2013-02-14 09:35:00,
2013-02-14 03:38:00,34.1,29.2,29.03,SW,217,0.0,0.0,82,0.00,,---,0.00,VWS V14.00,2013-02-14 09:38:00,
2013-02-14 03:41:00,34.1,29.2,29.03,SW,217,0.0,0.0,82,0.00,,---,0.00,VWS V14.00,2013-02-14 09:41:00,
2013-02-14 03:47:00,33.8,29.2,29.03,SW,217,0.0,0.0,83,0.00,,---,0.00,VWS V14.00,2013-02-14 09:47:00,
2013-02-14 03:53:00,33.8,29.2,29.06,SW,217,0.0,0.0,83,0.00,,---,0.00,VWS V14.00,2013-02-14 09:53:00,
2013-02-14 03:56:00,33.8,29.2,29.06,SW,217,0.0,0.0,83,0.00,,---,0.00,VWS V14.00,2013-02-14 09:56:00,
2013-02-14 04:02:00,33.6,29.0,29.06,SW,217,0.0,0.0,83,0.00,,---,0.00,VWS V14.00,2013-02-14 10:02:00,
2013-02-14 04:05:00,33.6,29.0,29.06,SW,217,0.0,0.0,83,0.00,,---,0.00,VWS V14.00,2013-02-14 10:05:00,
2013-02-14 04:11:00,33.6,29.0,29.06,SW,217,0.0,0.0,83,0.00,,---,0.00,VWS V14.00,2013-02-14 10:11:00,
2013-02-14 04:17:00,33.6,29.0,29.06,SW,217,0.0,0.0,83,0.00,,---,0.00,VWS V14.00,2013-02-14 10:17:00,
2013-02-14 04:20:00,33.4,28.8,29.06,SW,217,0.0,0.0,83,0.00,,---,0.00,VWS V14.00,2013-02-14 10:20:00,
2013-02-14 04:23:00,33.4,29.1,29.06,SW,217,0.0,0.0,84,0.00,,---,0.00,VWS V14.00,2013-02-14 10:23:00,
2013-02-14 04:26:00,33.4,29.1,29.06,SW,217,0.0,0.0,84,0.00,,---,0.00,VWS V14.00,2013-02-14 10:26:00,
2013-02-14 04:29:00,33.4,29.1,29.06,SW,217,0.0,0.0,84,0.00,,---,0.00,VWS V14.00,2013-02-14 10:29:00,
2013-02-14 04:32:00,33.4,29.1,29.06,SW,217,0.0,0.0,84,0.00,,---,0.00,VWS V14.00,2013-02-14 10:32:00,
2013-02-14 04:35:00,33.4,29.1,29.03,SW,217,0.0,0.0,84,0.00,,---,0.00,VWS V14.00,2013-02-14 10:35:00,
2013-02-14 04:41:00,33.4,29.1,29.03,SW,217,0.0,0.0,84,0.00,,---,0.00,VWS V14.00,2013-02-14 10:41:00,
2013-02-14 04:47:00,33.2,28.6,29.03,SW,217,0.0,0.0,83,0.00,,---,0.00,VWS V14.00,2013-02-14 10:47:00,
2013-02-14 04:50:00,33.2,28.6,29.03,SW,217,0.0,0.0,83,0.00,,---,0.00,VWS V14.00,2013-02-14 10:50:00,
2013-02-14 04:56:00,33.1,28.5,29.03,SW,217,0.0,0.0,83,0.00,,---,0.00,VWS V14.00,2013-02-14 10:56:00,
2013-02-14 05:02:00,33.1,28.8,29.03,SW,217,0.0,0.0,84,0.00,,---,0.00,VWS V14.00,2013-02-14 11:02:00,
2013-02-14 05:05:00,33.1,28.8,29.06,SW,217,0.0,0.0,84,0.00,,---,0.00,VWS V14.00,2013-02-14 11:05:00,
2013-02-14 05:11:00,33.1,28.8,29.06,SW,217,0.0,0.0,84,0.00,,---,0.00,VWS V14.00,2013-02-14 11:11:00,
2013-02-14 05:14:00,33.1,28.8,29.06,SW,217,0.0,0.0,84,0.00,,---,0.00,VWS V14.00,2013-02-14 11:14:00,
2013-02-14 05:20:00,32.9,28.6,29.06,SW,217,0.0,0.0,84,0.00,,---,0.00,VWS V14.00,2013-02-14 11:20:00,
2013-02-14 05:23:00,32.9,28.6,29.06,SW,217,0.0,0.0,84,0.00,,---,0.00,VWS V14.00,2013-02-14 11:23:00,
2013-02-14 05:26:00,32.9,28.6,29.06,SW,217,0.0,0.0,84,0.00,,---,0.00,VWS V14.00,2013-02-14 11:26:00,
2013-02-14 05:29:00,33.4,29.4,29.06,SW,217,0.0,0.0,85,0.00,,---,0.00,VWS V14.00,2013-02-14 11:29:00,
2013-02-14 05:32:00,33.4,29.4,29.06,SW,217,0.0,0.0,85,0.00,,---,0.00,VWS V14.00,2013-02-14 11:32:00,
2013-02-14 05:35:00,33.6,29.6,29.06,SW,217,0.0,0.0,85,0.00,,---,0.00,VWS V14.00,2013-02-14 11:35:00,
2013-02-14 05:38:00,33.8,29.8,29.06,SW,217,0.0,0.0,85,0.00,,---,0.00,VWS V14.00,2013-02-14 11:38:00,
2013-02-14 05:44:00,33.6,29.3,29.06,SW,217,0.0,0.0,84,0.00,,---,0.00,VWS V14.00,2013-02-14 11:44:00,
2013-02-14 05:47:00,33.6,29.3,29.06,SW,217,0.0,0.0,84,0.00,,---,0.00,VWS V14.00,2013-02-14 11:47:00,
2013-02-14 05:50:00,33.6,29.3,29.06,SW,217,0.0,0.0,84,0.00,,---,0.00,VWS V14.00,2013-02-14 11:50:00,
2013-02-14 05:56:00,33.6,29.3,29.06,SW,217,0.0,0.0,84,0.00,,---,0.00,VWS V14.00,2013-02-14 11:56:00,
2013-02-14 05:59:00,33.8,29.5,29.06,SW,217,0.0,0.0,84,0.00,,---,0.00,VWS V14.00,2013-02-14 11:59:00,
2013-02-14 06:02:00,33.6,29.3,29.06,SW,217,0.0,0.0,84,0.00,,---,0.00,VWS V14.00,2013-02-14 12:02:00,
2013-02-14 06:05:00,33.6,29.3,29.06,SW,217,0.0,0.0,84,0.00,,---,0.00,VWS V14.00,2013-02-14 12:05:00,
2013-02-14 06:08:00,33.4,29.1,29.06,SW,217,0.0,0.0,84,0.00,,---,0.00,VWS V14.00,2013-02-14 12:08:00,
2013-02-14 06:11:00,33.2,28.9,29.06,SW,217,0.0,0.0,84,0.00,,---,0.00,VWS V14.00,2013-02-14 12:11:00,
2013-02-14 06:14:00,33.2,28.9,29.06,SW,217,0.0,0.0,84,0.00,,---,0.00,VWS V14.00,2013-02-14 12:14:00,
2013-02-14 06:17:00,33.2,28.9,29.06,SW,217,0.0,0.0,84,0.00,,---,0.00,VWS V14.00,2013-02-14 12:17:00,
2013-02-14 06:20:00,33.2,28.9,29.06,SW,217,0.0,0.0,84,0.00,,---,0.00,VWS V14.00,2013-02-14 12:20:00,
2013-02-14 06:23:00,33.2,28.9,29.06,SW,217,0.0,0.0,84,0.00,,---,0.00,VWS V14.00,2013-02-14 12:23:00,
2013-02-14 06:26:00,33.6,29.3,29.06,SW,217,0.0,0.0,84,0.00,,---,0.00,VWS V14.00,2013-02-14 12:26:00,
2013-02-14 06:29:00,33.4,29.1,29.06,SW,217,0.0,0.0,84,0.00,,---,0.00,VWS V14.00,2013-02-14 12:29:00,
2013-02-14 06:32:00,33.2,28.9,29.06,SW,217,0.0,0.0,84,0.00,,---,0.00,VWS V14.00,2013-02-14 12:32:00,
2013-02-14 06:35:00,32.9,28.6,29.06,SW,217,0.0,0.0,84,0.00,,---,0.00,VWS V14.00,2013-02-14 12:35:00,
2013-02-14 06:38:00,32.9,28.6,29.06,SW,217,0.0,0.0,84,0.00,,---,0.00,VWS V14.00,2013-02-14 12:38:00,
2013-02-14 06:41:00,32.9,28.6,29.06,SW,217,0.0,0.0,84,0.00,,---,0.00,VWS V14.00,2013-02-14 12:41:00,
2013-02-14 06:44:00,33.1,28.8,29.06,SW,217,0.0,0.0,84,0.00,,---,0.00,VWS V14.00,2013-02-14 12:44:00,
2013-02-14 06:47:00,33.1,28.8,29.06,SW,217,0.0,0.0,84,0.00,,---,0.00,VWS V14.00,2013-02-14 12:47:00,
2013-02-14 06:50:00,33.1,28.8,29.06,SW,217,0.0,0.0,84,0.00,,---,0.00,VWS V14.00,2013-02-14 12:50:00,
2013-02-14 06:54:00,33.6,29.0,29.06,SW,217,0.0,0.0,83,0.00,,---,0.00,VWS V14.00,2013-02-14 12:54:00,
2013-02-14 06:57:00,33.6,29.0,29.06,SW,217,0.0,0.0,83,0.00,,---,0.00,VWS V14.00,2013-02-14 12:57:00,
2013-02-14 07:00:00,33.8,29.2,29.06,SW,217,0.0,0.0,83,0.00,,---,0.00,VWS V14.00,2013-02-14 13:00:00,
2013-02-14 07:03:00,33.8,29.2,29.06,SW,217,0.0,0.0,83,0.00,,---,0.00,VWS V14.00,2013-02-14 13:03:00,
2013-02-14 07:09:00,34.3,29.4,29.06,SW,217,0.0,0.0,82,0.00,,---,0.00,VWS V14.00,2013-02-14 13:09:00,
2013-02-14 07:15:00,34.3,29.4,29.06,SW,217,0.0,0.0,82,0.00,,---,0.00,VWS V14.00,2013-02-14 13:15:00,
2013-02-14 07:18:00,34.3,29.1,29.06,SW,217,0.0,0.0,81,0.00,,---,0.00,VWS V14.00,2013-02-14 13:18:00,
2013-02-14 07:21:00,34.3,29.1,29.06,SW,217,0.0,0.0,81,0.00,,---,0.00,VWS V14.00,2013-02-14 13:21:00,
2013-02-14 07:24:00,34.3,29.1,29.06,SW,217,0.0,0.0,81,0.00,,---,0.00,VWS V14.00,2013-02-14 13:24:00,
2013-02-14 07:27:00,34.1,28.9,29.06,SW,217,0.0,0.0,81,0.00,,---,0.00,VWS V14.00,2013-02-14 13:27:00,
2013-02-14 07:30:00,34.1,28.9,29.06,SW,217,0.0,0.0,81,0.00,,---,0.00,VWS V14.00,2013-02-14 13:30:00,
2013-02-14 07:33:00,34.1,28.9,29.06,SW,217,0.0,0.0,81,0.00,,---,0.00,VWS V14.00,2013-02-14 13:33:00,
2013-02-14 07:35:00,34.0,28.8,29.06,SW,217,0.0,0.0,81,0.00,,---,0.00,VWS V14.00,2013-02-14 13:35:00,
2013-02-14 07:36:00,34.0,28.8,29.06,SW,217,0.0,0.0,81,0.00,,---,0.00,VWS V14.00,2013-02-14 13:36:00,
2013-02-14 07:42:00,34.0,28.8,29.06,SW,217,0.0,0.0,81,0.00,,---,0.00,VWS V14.00,2013-02-14 13:42:00,
2013-02-14 07:45:00,34.1,29.2,29.06,SW,217,0.0,0.0,82,0.00,,---,0.00,VWS V14.00,2013-02-14 13:45:00,
2013-02-14 07:50:00,34.7,29.8,29.06,SW,217,0.0,0.0,82,0.00,,---,0.00,VWS V14.00,2013-02-14 13:50:00,
2013-02-14 07:57:00,34.7,29.8,29.09,SW,217,0.0,0.0,82,0.00,,---,0.00,VWS V14.00,2013-02-14 13:57:00,
2013-02-14 08:00:00,35.2,30.0,29.09,SW,217,0.0,0.0,81,0.00,,---,0.00,VWS V14.00,2013-02-14 14:00:00,
2013-02-14 08:03:00,35.0,29.8,29.09,SW,217,0.0,0.0,81,0.00,,---,0.00,VWS V14.00,2013-02-14 14:03:00,
2013-02-14 08:06:00,35.0,29.8,29.09,SW,217,0.0,0.0,81,0.00,,---,0.00,VWS V14.00,2013-02-14 14:06:00,
2013-02-14 08:12:00,35.2,30.0,29.09,SW,217,0.0,0.0,81,0.00,,---,0.00,VWS V14.00,2013-02-14 14:12:00,
2013-02-14 08:15:00,35.2,30.0,29.09,SW,217,0.0,0.0,81,0.00,,---,0.00,VWS V14.00,2013-02-14 14:15:00,
2013-02-14 08:18:00,35.8,30.2,29.09,SW,217,0.0,0.0,80,0.00,,---,0.00,VWS V14.00,2013-02-14 14:18:00,
2013-02-14 08:21:00,35.8,30.2,29.09,SW,217,0.0,0.0,80,0.00,,---,0.00,VWS V14.00,2013-02-14 14:21:00,
2013-02-14 08:24:00,36.3,30.4,29.09,SW,217,0.0,0.0,79,0.00,,---,0.00,VWS V14.00,2013-02-14 14:24:00,
2013-02-14 08:27:00,36.7,30.8,29.09,SW,217,0.0,0.0,79,0.00,,---,0.00,VWS V14.00,2013-02-14 14:27:00,
2013-02-14 08:30:00,36.7,30.8,29.09,SW,217,0.0,0.0,79,0.00,,---,0.00,VWS V14.00,2013-02-14 14:30:00,
2013-02-14 08:33:00,37.9,31.4,29.09,SW,217,0.0,0.0,77,0.00,,---,0.00,VWS V14.00,2013-02-14 14:33:00,
2013-02-14 08:35:00,37.9,31.4,29.09,SW,217,0.0,0.0,77,0.00,,---,0.00,VWS V14.00,2013-02-14 14:35:00,
2013-02-14 08:36:00,37.9,31.4,29.09,SW,217,0.0,0.0,77,0.00,,---,0.00,VWS V14.00,2013-02-14 14:36:00,
2013-02-14 08:39:00,38.3,31.7,29.09,SW,217,0.0,0.0,77,0.00,,---,0.00,VWS V14.00,2013-02-14 14:39:00,
2013-02-14 08:42:00,38.8,31.9,29.09,SW,217,0.0,0.0,76,0.00,,---,0.00,VWS V14.00,2013-02-14 14:42:00,
2013-02-14 08:45:00,38.8,31.9,29.09,SW,217,0.0,0.0,76,0.00,,---,0.00,VWS V14.00,2013-02-14 14:45:00,
2013-02-14 08:48:00,38.8,31.9,29.09,SW,217,0.0,0.0,76,0.00,,---,0.00,VWS V14.00,2013-02-14 14:48:00,
2013-02-14 08:51:00,39.9,32.6,29.09,SW,217,0.0,0.0,75,0.00,,---,0.00,VWS V14.00,2013-02-14 14:51:00,
2013-02-14 08:54:00,39.9,32.6,29.09,SW,217,0.0,0.0,75,0.00,,---,0.00,VWS V14.00,2013-02-14 14:54:00,
2013-02-14 08:57:00,40.8,32.1,29.09,SW,217,0.0,0.0,71,0.00,,---,0.00,VWS V14.00,2013-02-14 14:57:00,
2013-02-14 09:00:00,41.0,32.0,29.09,SW,217,0.0,0.0,70,0.00,,---,0.00,VWS V14.00,2013-02-14 15:00:00,
2013-02-14 09:05:00,42.1,32.3,29.09,SW,217,0.0,0.0,68,0.00,,---,0.00,VWS V14.00,2013-02-14 15:05:00,
2013-02-14 09:09:00,42.2,32.5,29.09,SW,217,0.0,0.0,68,0.00,,---,0.00,VWS V14.00,2013-02-14 15:09:00,
2013-02-14 09:12:00,42.2,32.5,29.09,SW,217,0.0,0.0,68,0.00,,---,0.00,VWS V14.00,2013-02-14 15:12:00,
2013-02-14 09:18:00,42.2,32.8,29.09,SW,217,0.0,0.0,69,0.00,,---,0.00,VWS V14.00,2013-02-14 15:18:00,
2013-02-14 09:20:00,42.2,32.8,29.09,SW,217,0.0,0.0,69,0.00,,---,0.00,VWS V14.00,2013-02-14 15:20:00,
2013-02-14 09:21:00,42.8,33.0,29.09,SW,217,0.0,0.0,68,0.00,,---,0.00,VWS V14.00,2013-02-14 15:21:00,
2013-02-14 09:24:00,43.0,33.5,29.09,SW,217,0.0,0.0,69,0.00,,---,0.00,VWS V14.00,2013-02-14 15:24:00,
2013-02-14 09:27:00,43.0,33.5,29.09,SW,217,0.0,0.0,69,0.00,,---,0.00,VWS V14.00,2013-02-14 15:27:00,
2013-02-14 09:33:00,43.0,33.5,29.09,SW,217,0.0,0.0,69,0.00,,---,0.00,VWS V14.00,2013-02-14 15:33:00,
2013-02-14 09:36:00,44.0,33.8,29.09,SW,218,0.0,0.0,67,0.00,,---,0.00,VWS V14.00,2013-02-14 15:36:00,
2013-02-14 09:42:00,44.4,33.8,29.12,SW,217,0.0,0.0,66,0.00,,---,0.00,VWS V14.00,2013-02-14 15:42:00,
2013-02-14 09:48:00,45.7,34.2,29.12,SW,218,0.0,0.0,64,0.00,,---,0.00,VWS V14.00,2013-02-14 15:48:00,
2013-02-14 09:51:00,46.2,33.9,29.12,SW,218,0.0,0.0,62,0.00,,---,0.00,VWS V14.00,2013-02-14 15:51:00,
2013-02-14 09:57:00,46.7,33.6,29.12,SE,142,0.0,0.0,60,0.00,,---,0.00,VWS V14.00,2013-02-14 15:57:00,
2013-02-14 10:03:00,47.1,33.1,29.12,NE,52,0.0,0.0,58,0.00,,---,0.00,VWS V14.00,2013-02-14 16:03:00,
2013-02-14 10:05:00,47.1,33.1,29.09,NE,52,0.0,0.0,58,0.00,,---,0.00,VWS V14.00,2013-02-14 16:05:00,
2013-02-14 10:06:00,47.6,33.2,29.09,SSE,157,0.0,0.0,57,0.00,,---,0.00,VWS V14.00,2013-02-14 16:06:00,
2013-02-14 10:09:00,47.8,33.3,29.09,SSE,151,0.0,0.0,57,0.00,,---,0.00,VWS V14.00,2013-02-14 16:09:00,
2013-02-14 10:15:00,48.4,33.4,29.09,SSE,152,0.0,0.0,56,0.00,,---,0.00,VWS V14.00,2013-02-14 16:15:00,
2013-02-14 10:20:00,48.4,33.4,29.09,North,357,0.0,0.0,56,0.00,,---,0.00,VWS V14.00,2013-02-14 16:20:00,
2013-02-14 10:21:00,48.4,33.4,29.09,North,357,0.0,0.0,56,0.00,,---,0.00,VWS V14.00,2013-02-14 16:21:00,
2013-02-14 10:27:00,49.4,33.0,29.09,SSE,164,0.0,0.0,53,0.00,,---,0.00,VWS V14.00,2013-02-14 16:27:00,
2013-02-14 10:30:00,49.4,33.0,29.09,NW,316,0.0,0.0,53,0.00,,---,0.00,VWS V14.00,2013-02-14 16:30:00,
2013-02-14 10:33:00,50.2,32.8,29.09,NW,316,0.0,0.0,51,0.00,,---,0.00,VWS V14.00,2013-02-14 16:33:00,
2013-02-14 10:36:00,50.3,32.9,29.09,SE,146,0.0,0.0,51,0.00,,---,0.00,VWS V14.00,2013-02-14 16:36:00,
2013-02-14 10:39:00,50.5,33.1,29.12,SE,146,0.0,0.0,51,0.00,,---,0.00,VWS V14.00,2013-02-14 16:39:00,
2013-02-14 10:42:00,50.7,33.2,29.12,SW,228,0.0,0.0,51,0.00,,---,0.00,VWS V14.00,2013-02-14 16:42:00,
2013-02-14 10:48:00,51.2,33.2,29.12,SW,228,0.0,0.0,50,0.00,,---,0.00,VWS V14.00,2013-02-14 16:48:00,
2013-02-14 10:50:00,51.2,33.2,29.12,SW,228,0.0,0.0,50,0.00,,---,0.00,VWS V14.00,2013-02-14 16:50:00,
2013-02-14 10:54:00,51.4,33.4,29.12,SW,235,0.0,0.0,50,0.00,,---,0.00,VWS V14.00,2013-02-14 16:54:00,
2013-02-14 10:57:00,52.0,32.9,29.12,SSE,147,0.0,0.0,48,0.00,,---,0.00,VWS V14.00,2013-02-14 16:57:00,
2013-02-14 11:00:00,52.3,33.2,29.12,SSE,157,0.0,0.0,48,0.00,,---,0.00,VWS V14.00,2013-02-14 17:00:00,
2013-02-14 11:03:00,52.3,33.2,29.12,SSE,157,0.0,0.0,48,0.00,,---,0.00,VWS V14.00,2013-02-14 17:03:00,
2013-02-14 11:05:00,52.3,33.2,29.12,North,3,0.0,0.0,48,0.00,,---,0.00,VWS V14.00,2013-02-14 17:05:00,
2013-02-14 11:09:00,52.7,33.6,29.12,ENE,72,3.1,3.1,48,0.00,,---,0.00,VWS V14.00,2013-02-14 17:09:00,
2013-02-14 11:12:00,53.2,33.5,29.12,ENE,72,3.1,3.1,47,0.00,,---,0.00,VWS V14.00,2013-02-14 17:12:00,
2013-02-14 11:15:00,53.6,33.9,29.12,SSW,204,0.0,3.1,47,0.00,,---,0.00,VWS V14.00,2013-02-14 17:15:00,
2013-02-14 11:18:00,53.6,33.9,29.12,NE,40,0.0,3.1,47,0.00,,---,0.00,VWS V14.00,2013-02-14 17:18:00,
2013-02-14 11:20:00,53.6,33.9,29.12,NE,40,0.0,3.1,47,0.00,,---,0.00,VWS V14.00,2013-02-14 17:20:00,
2013-02-14 11:21:00,53.6,33.9,29.12,NE,40,0.0,0.0,47,0.00,,---,0.00,VWS V14.00,2013-02-14 17:21:00,
2013-02-14 11:27:00,54.3,34.0,29.12,North,3,0.0,0.0,46,0.00,,---,0.00,VWS V14.00,2013-02-14 17:27:00,
2013-02-14 11:30:00,54.3,33.4,29.12,North,3,0.0,0.0,45,0.00,,---,0.00,VWS V14.00,2013-02-14 17:30:00,
2013-02-14 11:33:00,54.5,33.6,29.12,North,3,0.0,0.0,45,0.00,,---,0.00,VWS V14.00,2013-02-14 17:33:00,
2013-02-14 11:36:00,54.5,33.6,29.12,NNE,18,0.0,0.0,45,0.00,,---,0.00,VWS V14.00,2013-02-14 17:36:00,
2013-02-14 11:39:00,54.7,33.2,29.09,NNE,18,0.0,0.0,44,0.00,,---,0.00,VWS V14.00,2013-02-14 17:39:00,
2013-02-14 11:42:00,54.8,33.4,29.09,WSW,257,0.0,0.0,44,0.00,,---,0.00,VWS V14.00,2013-02-14 17:42:00,
2013-02-14 11:45:00,54.8,33.4,29.09,WSW,257,0.0,0.0,44,0.00,,---,0.00,VWS V14.00,2013-02-14 17:45:00,
2013-02-14 11:48:00,55.0,33.5,29.09,SE,130,0.0,0.0,44,0.00,,---,0.00,VWS V14.00,2013-02-14 17:48:00,
2013-02-14 11:51:00,55.2,33.1,29.09,South,187,0.0,0.0,43,0.00,,---,0.00,VWS V14.00,2013-02-14 17:51:00,
2013-02-14 11:54:00,55.2,33.1,29.09,ESE,116,0.0,0.0,43,0.00,,---,0.00,VWS V14.00,2013-02-14 17:54:00,
2013-02-14 12:00:00,55.6,34.0,29.09,South,176,3.1,3.1,44,0.00,,---,0.00,VWS V14.00,2013-02-14 18:00:00,
2013-02-14 12:03:00,55.9,34.3,29.09,South,176,3.1,3.1,44,0.00,,---,0.00,VWS V14.00,2013-02-14 18:03:00,
2013-02-14 12:05:00,55.9,34.3,29.09,NNW,344,0.0,3.1,44,0.00,,---,0.00,VWS V14.00,2013-02-14 18:05:00,
2013-02-14 12:09:00,55.9,34.3,29.09,WNW,288,0.0,0.0,44,0.00,,---,0.00,VWS V14.00,2013-02-14 18:09:00,
2013-02-14 12:12:00,56.5,34.8,29.09,WNW,288,0.0,0.0,44,0.00,,---,0.00,VWS V14.00,2013-02-14 18:12:00,
2013-02-14 12:18:00,56.6,35.0,29.09,SSE,160,0.0,0.0,44,0.00,,---,0.00,VWS V14.00,2013-02-14 18:18:00,
2013-02-14 12:20:00,56.6,35.0,29.09,SSE,160,0.0,0.0,44,0.00,,---,0.00,VWS V14.00,2013-02-14 18:20:00,
2013-02-14 12:21:00,57.0,34.8,29.09,SSE,160,0.0,0.0,43,0.00,,---,0.00,VWS V14.00,2013-02-14 18:21:00,
2013-02-14 12:24:00,57.2,34.3,29.09,SSE,160,0.0,0.0,42,0.00,,---,0.00,VWS V14.00,2013-02-14 18:24:00,
2013-02-14 12:27:00,57.2,34.3,29.09,NE,40,0.0,0.0,42,0.00,,---,0.00,VWS V14.00,2013-02-14 18:27:00,
2013-02-14 12:30:00,57.4,34.5,29.09,SW,221,0.0,0.0,42,0.00,,---,0.00,VWS V14.00,2013-02-14 18:30:00,
2013-02-14 12:33:00,57.4,34.5,29.09,SW,221,0.0,0.0,42,0.00,,---,0.00,VWS V14.00,2013-02-14 18:33:00,
2013-02-14 12:36:00,57.5,34.6,29.09,WNW,293,0.0,0.0,42,0.00,,---,0.00,VWS V14.00,2013-02-14 18:36:00,
2013-02-14 12:42:00,57.4,33.9,29.09,WSW,243,3.1,3.1,41,0.00,,---,0.00,VWS V14.00,2013-02-14 18:42:00,
2013-02-14 12:45:00,57.0,34.2,29.09,WSW,243,3.1,3.1,42,0.00,,---,0.00,VWS V14.00,2013-02-14 18:45:00,
2013-02-14 12:48:00,57.0,33.5,29.09,South,177,0.0,3.1,41,0.00,,---,0.00,VWS V14.00,2013-02-14 18:48:00,
2013-02-14 12:51:00,57.0,33.5,29.09,North,5,2.2,2.2,41,0.00,,---,0.00,VWS V14.00,2013-02-14 18:51:00,
2013-02-14 12:58:00,57.7,34.2,29.09,NNE,13,0.0,2.2,41,0.00,,---,0.00,VWS V14.00,2013-02-14 18:58:00,
2013-02-14 13:01:00,57.7,34.2,29.09,SSW,195,0.0,2.2,41,0.00,,---,0.00,VWS V14.00,2013-02-14 19:01:00,
2013-02-14 13:04:00,57.9,34.4,29.09,SSE,158,0.0,2.2,41,0.00,,---,0.00,VWS V14.00,2013-02-14 19:04:00,
2013-02-14 13:10:00,58.1,35.1,29.09,SSE,158,0.0,0.0,42,0.00,,---,0.00,VWS V14.00,2013-02-14 19:10:00,
2013-02-14 13:13:00,58.3,34.7,29.09,SSE,166,0.0,0.0,41,0.00,,---,0.00,VWS V14.00,2013-02-14 19:13:00,
2013-02-14 13:16:00,58.4,34.2,29.09,NNE,27,0.0,0.0,40,0.00,,---,0.00,VWS V14.00,2013-02-14 19:16:00,
2013-02-14 13:20:00,58.4,34.2,29.09,NE,42,0.0,0.0,40,0.00,,---,0.00,VWS V14.00,2013-02-14 19:20:00,
2013-02-14 13:22:00,58.6,34.4,29.09,South,174,0.0,0.0,40,0.00,,---,0.00,VWS V14.00,2013-02-14 19:22:00,
2013-02-14 13:25:00,58.6,34.4,29.09,SW,233,0.0,0.0,40,0.00,,---,0.00,VWS V14.00,2013-02-14 19:25:00,
2013-02-14 13:31:00,59.2,34.9,29.09,ESE,116,0.0,0.0,40,0.00,,---,0.00,VWS V14.00,2013-02-14 19:31:00,
2013-02-14 13:34:00,59.2,34.9,29.09,NNE,16,0.0,0.0,40,0.00,,---,0.00,VWS V14.00,2013-02-14 19:34:00,
2013-02-14 13:37:00,59.2,34.9,29.09,NNE,16,0.0,0.0,40,0.00,,---,0.00,VWS V14.00,2013-02-14 19:37:00,
2013-02-14 13:40:00,59.2,34.9,29.09,NNE,16,0.0,0.0,40,0.00,,---,0.00,VWS V14.00,2013-02-14 19:40:00,
2013-02-14 13:43:00,59.3,35.0,29.09,ESE,103,0.0,0.0,40,0.00,,---,0.00,VWS V14.00,2013-02-14 19:43:00,
2013-02-14 13:46:00,59.7,34.7,29.09,SSW,213,0.0,0.0,39,0.00,,---,0.00,VWS V14.00,2013-02-14 19:46:00,
2013-02-14 13:49:00,59.7,34.7,29.09,SW,216,0.0,0.0,39,0.00,,---,0.00,VWS V14.00,2013-02-14 19:49:00,
2013-02-14 13:52:00,59.7,34.7,29.09,SW,216,0.0,0.0,39,0.00,,---,0.00,VWS V14.00,2013-02-14 19:52:00,
2013-02-14 13:55:00,59.7,34.7,29.09,SSE,155,0.0,0.0,39,0.00,,---,0.00,VWS V14.00,2013-02-14 19:55:00,
2013-02-14 13:58:00,59.7,34.7,29.09,NNE,33,0.0,0.0,39,0.00,,---,0.00,VWS V14.00,2013-02-14 19:58:00,
2013-02-14 14:01:00,59.9,34.2,29.09,SW,224,0.0,0.0,38,0.00,,---,0.00,VWS V14.00,2013-02-14 20:01:00,
2013-02-14 14:04:00,59.9,34.9,29.09,SSW,207,0.0,0.0,39,0.00,,---,0.00,VWS V14.00,2013-02-14 20:04:00,
2013-02-14 14:07:00,59.9,34.9,29.06,SW,214,0.0,0.0,39,0.00,,---,0.00,VWS V14.00,2013-02-14 20:07:00,
2013-02-14 14:10:00,59.9,34.9,29.06,WSW,239,2.7,2.7,39,0.00,,---,0.00,VWS V14.00,2013-02-14 20:10:00,
2013-02-14 14:13:00,59.9,34.9,29.06,SSW,209,0.0,2.7,39,0.00,,---,0.00,VWS V14.00,2013-02-14 20:13:00,
2013-02-14 14:16:00,59.9,34.9,29.06,North,10,0.0,2.7,39,0.00,,---,0.00,VWS V14.00,2013-02-14 20:16:00,
2013-02-14 14:19:00,59.9,34.9,29.06,ESE,104,0.0,2.7,39,0.00,,---,0.00,VWS V14.00,2013-02-14 20:19:00,
2013-02-14 14:25:00,60.1,35.0,29.06,ESE,104,0.0,0.0,39,0.00,,---,0.00,VWS V14.00,2013-02-14 20:25:00,
2013-02-14 14:28:00,60.6,34.9,29.06,ESE,104,0.0,0.0,38,0.00,,---,0.00,VWS V14.00,2013-02-14 20:28:00,
2013-02-14 14:31:00,60.6,34.9,29.06,ESE,104,0.0,0.0,38,0.00,,---,0.00,VWS V14.00,2013-02-14 20:31:00,
2013-02-14 14:35:00,60.6,34.9,29.06,ESE,104,0.0,0.0,38,0.00,,---,0.00,VWS V14.00,2013-02-14 20:35:00,
2013-02-14 14:37:00,60.6,34.9,29.06,ESE,104,0.0,0.0,38,0.00,,---,0.00,VWS V14.00,2013-02-14 20:37:00,
2013-02-14 14:43:00,60.6,34.9,29.06,SSE,166,2.2,2.2,38,0.00,,---,0.00,VWS V14.00,2013-02-14 20:43:00,
2013-02-14 14:49:00,60.6,34.2,29.06,WSW,256,0.0,2.2,37,0.00,,---,0.00,VWS V14.00,2013-02-14 20:49:00,
2013-02-14 14:55:00,61.0,34.5,29.06,SSW,200,0.0,0.0,37,0.00,,---,0.00,VWS V14.00,2013-02-14 20:55:00,
2013-02-14 14:58:00,61.0,34.5,29.06,NNE,18,0.0,0.0,37,0.00,,---,0.00,VWS V14.00,2013-02-14 20:58:00,
2013-02-14 15:01:00,61.0,34.5,29.06,NE,37,0.0,0.0,37,0.00,,---,0.00,VWS V14.00,2013-02-14 21:01:00,
2013-02-14 15:05:00,61.0,34.5,29.06,East,88,0.0,0.0,37,0.00,,---,0.00,VWS V14.00,2013-02-14 21:05:00,
2013-02-14 15:07:00,61.0,34.5,29.06,East,88,0.0,0.0,37,0.00,,---,0.00,VWS V14.00,2013-02-14 21:07:00,
2013-02-14 15:13:00,60.6,34.2,29.06,SSW,200,0.0,0.0,37,0.00,,---,0.00,VWS V14.00,2013-02-14 21:13:00,
2013-02-14 15:16:00,60.6,34.2,29.06,North,4,0.0,0.0,37,0.00,,---,0.00,VWS V14.00,2013-02-14 21:16:00,
2013-02-14 15:20:00,60.8,34.4,29.06,WSW,254,0.0,0.0,37,0.00,,---,0.00,VWS V14.00,2013-02-14 21:20:00,
2013-02-14 15:22:00,60.8,34.4,29.06,WSW,254,0.0,0.0,37,0.00,,---,0.00,VWS V14.00,2013-02-14 21:22:00,
2013-02-14 15:25:00,60.8,34.4,29.06,WSW,254,0.0,0.0,37,0.00,,---,0.00,VWS V14.00,2013-02-14 21:25:00,
2013-02-14 15:31:00,61.0,35.2,29.06,NNE,24,0.0,0.0,38,0.00,,---,0.00,VWS V14.00,2013-02-14 21:31:00,
2013-02-14 15:34:00,60.2,34.6,29.06,NNE,24,0.0,0.0,38,0.00,,---,0.00,VWS V14.00,2013-02-14 21:34:00,
2013-02-14 15:37:00,60.2,34.6,29.06,NNE,24,0.0,0.0,38,0.00,,---,0.00,VWS V14.00,2013-02-14 21:37:00,
2013-02-14 15:40:00,60.1,34.4,29.06,SSW,213,0.0,0.0,38,0.00,,---,0.00,VWS V14.00,2013-02-14 21:40:00,
2013-02-14 15:43:00,59.5,33.9,29.06,SSW,213,0.0,0.0,38,0.00,,---,0.00,VWS V14.00,2013-02-14 21:43:00,
2013-02-14 15:46:00,59.5,33.9,29.06,SSW,213,0.0,0.0,38,0.00,,---,0.00,VWS V14.00,2013-02-14 21:46:00,
2013-02-14 15:49:00,59.3,33.8,29.06,SSW,213,0.0,0.0,38,0.00,,---,0.00,VWS V14.00,2013-02-14 21:49:00,
2013-02-14 15:52:00,59.3,33.8,29.06,SW,222,0.0,0.0,38,0.00,,---,0.00,VWS V14.00,2013-02-14 21:52:00,
2013-02-14 15:55:00,59.0,33.4,29.06,SW,222,0.0,0.0,38,0.00,,---,0.00,VWS V14.00,2013-02-14 21:55:00,
2013-02-14 15:58:00,58.8,33.3,29.09,SW,222,0.0,0.0,38,0.00,,---,0.00,VWS V14.00,2013-02-14 21:58:00,
2013-02-14 16:04:00,58.8,33.3,29.09,North,6,0.0,0.0,38,0.00,,---,0.00,VWS V14.00,2013-02-14 22:04:00,
2013-02-14 16:05:00,58.6,33.8,29.09,North,6,0.0,0.0,39,0.00,,---,0.00,VWS V14.00,2013-02-14 22:05:00,
2013-02-14 16:10:00,58.6,33.8,29.09,NNW,344,0.0,0.0,39,0.00,,---,0.00,VWS V14.00,2013-02-14 22:10:00,
2013-02-14 16:13:00,58.6,33.8,29.09,NNW,344,0.0,0.0,39,0.00,,---,0.00,VWS V14.00,2013-02-14 22:13:00,
2013-02-14 16:16:00,58.4,33.6,29.09,NNW,344,0.0,0.0,39,0.00,,---,0.00,VWS V14.00,2013-02-14 22:16:00,
2013-02-14 16:19:00,58.8,33.9,29.09,NNE,15,0.0,0.0,39,0.00,,---,0.00,VWS V14.00,2013-02-14 22:19:00,
2013-02-14 16:20:00,59.0,34.1,29.09,NNE,15,0.0,0.0,39,0.00,,---,0.00,VWS V14.00,2013-02-14 22:20:00,
2013-02-14 16:22:00,59.0,34.1,29.09,NNE,15,0.0,0.0,39,0.00,,---,0.00,VWS V14.00,2013-02-14 22:22:00,
2013-02-14 16:28:00,58.6,33.8,29.09,NNE,15,0.0,0.0,39,0.00,,---,0.00,VWS V14.00,2013-02-14 22:28:00,
2013-02-14 16:34:00,58.1,33.3,29.09,SW,223,0.0,0.0,39,0.00,,---,0.00,VWS V14.00,2013-02-14 22:34:00,
2013-02-14 16:37:00,57.7,33.0,29.09,SW,223,0.0,0.0,39,0.00,,---,0.00,VWS V14.00,2013-02-14 22:37:00,
2013-02-14 16:40:00,57.7,33.0,29.09,SW,223,0.0,0.0,39,0.00,,---,0.00,VWS V14.00,2013-02-14 22:40:00,
2013-02-14 16:43:00,57.7,33.0,29.09,SW,223,0.0,0.0,39,0.00,,---,0.00,VWS V14.00,2013-02-14 22:43:00,
2013-02-14 16:46:00,57.2,32.5,29.09,South,189,0.0,0.0,39,0.00,,---,0.00,VWS V14.00,2013-02-14 22:46:00,
2013-02-14 16:49:00,57.2,32.5,29.09,South,189,0.0,0.0,39,0.00,,---,0.00,VWS V14.00,2013-02-14 22:49:00,
2013-02-14 16:50:00,57.2,32.5,29.09,North,3,0.0,0.0,39,0.00,,---,0.00,VWS V14.00,2013-02-14 22:50:00,
2013-02-14 16:55:00,57.0,32.9,29.09,North,3,0.0,0.0,40,0.00,,---,0.00,VWS V14.00,2013-02-14 22:55:00,
2013-02-14 16:58:00,56.8,32.8,29.09,North,3,0.0,0.0,40,0.00,,---,0.00,VWS V14.00,2013-02-14 22:58:00,
2013-02-14 17:01:00,56.8,32.8,29.09,South,178,0.0,0.0,40,0.00,,---,0.00,VWS V14.00,2013-02-14 23:01:00,
2013-02-14 17:07:00,56.6,32.6,29.09,South,178,0.0,0.0,40,0.00,,---,0.00,VWS V14.00,2013-02-14 23:07:00,
2013-02-14 17:10:00,56.5,33.1,29.09,South,178,0.0,0.0,41,0.00,,---,0.00,VWS V14.00,2013-02-14 23:10:00,
2013-02-14 17:13:00,56.3,32.9,29.09,South,178,0.0,0.0,41,0.00,,---,0.00,VWS V14.00,2013-02-14 23:13:00,
2013-02-14 17:16:00,55.9,33.2,29.09,SSE,158,0.0,0.0,42,0.00,,---,0.00,VWS V14.00,2013-02-14 23:16:00,
2013-02-14 17:19:00,55.9,33.2,29.12,SSE,162,0.0,0.0,42,0.00,,---,0.00,VWS V14.00,2013-02-14 23:19:00,
2013-02-14 17:20:00,55.9,33.2,29.12,SSE,162,0.0,0.0,42,0.00,,---,0.00,VWS V14.00,2013-02-14 23:20:00,
2013-02-14 17:25:00,55.9,33.2,29.12,SSW,209,0.0,0.0,42,0.00,,---,0.00,VWS V14.00,2013-02-14 23:25:00,
2013-02-14 17:28:00,55.9,33.2,29.12,SSW,209,0.0,0.0,42,0.00,,---,0.00,VWS V14.00,2013-02-14 23:28:00,
2013-02-14 17:31:00,55.2,33.1,29.12,SSW,209,0.0,0.0,43,0.00,,---,0.00,VWS V14.00,2013-02-14 23:31:00,
2013-02-14 17:34:00,55.2,33.1,29.12,SSW,209,0.0,0.0,43,0.00,,---,0.00,VWS V14.00,2013-02-14 23:34:00,
2013-02-14 17:37:00,54.7,33.2,29.09,SSW,209,0.0,0.0,44,0.00,,---,0.00,VWS V14.00,2013-02-14 23:37:00,
2013-02-14 17:40:00,54.3,32.9,29.09,SSW,209,0.0,0.0,44,0.00,,---,0.00,VWS V14.00,2013-02-14 23:40:00,
2013-02-14 17:43:00,54.3,32.9,29.09,SSW,209,0.0,0.0,44,0.00,,---,0.00,VWS V14.00,2013-02-14 23:43:00,
2013-02-14 17:46:00,54.3,32.9,29.09,SSW,209,0.0,0.0,44,0.00,,---,0.00,VWS V14.00,2013-02-14 23:46:00,
2013-02-14 17:50:00,53.6,32.2,29.12,SSW,209,0.0,0.0,44,0.00,,---,0.00,VWS V14.00,2013-02-14 23:50:00,
2013-02-14 17:55:00,53.4,32.6,29.12,SSW,209,0.0,0.0,45,0.00,,---,0.00,VWS V14.00,2013-02-14 23:55:00,
2013-02-14 18:01:00,53.0,32.3,29.12,SSW,209,0.0,0.0,45,0.00,,---,0.00,VWS V14.00,2013-02-15 00:01:00,
2013-02-14 18:04:00,52.7,32.0,29.12,SSW,209,0.0,0.0,45,0.00,,---,0.00,VWS V14.00,2013-02-15 00:04:00,
2013-02-14 18:05:00,52.7,32.0,29.12,SSW,209,0.0,0.0,45,0.00,,---,0.00,VWS V14.00,2013-02-15 00:05:00,
2013-02-14 18:10:00,52.3,32.2,29.12,SSW,209,0.0,0.0,46,0.00,,---,0.00,VWS V14.00,2013-02-15 00:10:00,
2013-02-14 18:13:00,52.1,31.5,29.12,SSW,209,0.0,0.0,45,0.00,,---,0.00,VWS V14.00,2013-02-15 00:13:00,
2013-02-14 18:19:00,51.6,31.5,29.12,SSW,209,0.0,0.0,46,0.00,,---,0.00,VWS V14.00,2013-02-15 00:19:00,
2013-02-14 18:25:00,51.4,31.4,29.12,SSW,209,0.0,0.0,46,0.00,,---,0.00,VWS V14.00,2013-02-15 00:25:00,
2013-02-14 18:28:00,51.2,31.2,29.12,SSW,209,0.0,0.0,46,0.00,,---,0.00,VWS V14.00,2013-02-15 00:28:00,
2013-02-14 18:31:00,51.1,31.0,29.12,SSW,209,0.0,0.0,46,0.00,,---,0.00,VWS V14.00,2013-02-15 00:31:00,
2013-02-14 18:34:00,51.1,31.0,29.12,SSW,209,0.0,0.0,46,0.00,,---,0.00,VWS V14.00,2013-02-15 00:34:00,
2013-02-14 18:37:00,51.1,31.0,29.12,SSW,209,0.0,0.0,46,0.00,,---,0.00,VWS V14.00,2013-02-15 00:37:00,
2013-02-14 18:43:00,50.2,31.8,29.12,SSW,209,0.0,0.0,49,0.00,,---,0.00,VWS V14.00,2013-02-15 00:43:00,
2013-02-14 18:49:00,50.0,31.6,29.12,SSW,209,0.0,0.0,49,0.00,,---,0.00,VWS V14.00,2013-02-15 00:49:00,
2013-02-14 18:50:00,50.0,31.6,29.12,SSW,209,0.0,0.0,49,0.00,,---,0.00,VWS V14.00,2013-02-15 00:50:00,
2013-02-14 18:56:00,49.6,31.3,29.15,SSW,209,0.0,0.0,49,0.00,,---,0.00,VWS V14.00,2013-02-15 00:56:00,
2013-02-14 18:59:00,49.6,31.3,29.15,SSW,209,0.0,0.0,49,0.00,,---,0.00,VWS V14.00,2013-02-15 00:59:00,
2013-02-14 19:05:00,49.3,31.4,29.15,SSW,209,0.0,0.0,50,0.00,,---,0.00,VWS V14.00,2013-02-15 01:05:00,
2013-02-14 19:08:00,49.3,31.4,29.15,SSW,209,0.0,0.0,50,0.00,,---,0.00,VWS V14.00,2013-02-15 01:08:00,
2013-02-14 19:14:00,49.1,31.8,29.15,SSW,209,0.0,0.0,51,0.00,,---,0.00,VWS V14.00,2013-02-15 01:14:00,
2013-02-14 19:17:00,48.9,31.6,29.15,SSW,209,0.0,0.0,51,0.00,,---,0.00,VWS V14.00,2013-02-15 01:17:00,
2013-02-14 19:23:00,48.5,31.7,29.15,SSW,209,0.0,0.0,52,0.00,,---,0.00,VWS V14.00,2013-02-15 01:23:00,
2013-02-14 19:26:00,48.5,31.7,29.15,SSW,209,0.0,0.0,52,0.00,,---,0.00,VWS V14.00,2013-02-15 01:26:00,
2013-02-14 19:29:00,48.5,31.7,29.15,SSW,209,0.0,0.0,52,0.00,,---,0.00,VWS V14.00,2013-02-15 01:29:00,
2013-02-14 19:34:00,48.4,32.0,29.15,SSW,209,0.0,0.0,53,0.00,,---,0.00,VWS V14.00,2013-02-15 01:34:00,
2013-02-14 19:35:00,48.4,32.0,29.15,SSW,209,0.0,0.0,53,0.00,,---,0.00,VWS V14.00,2013-02-15 01:35:00,
2013-02-14 19:38:00,48.4,32.0,29.15,SSW,209,0.0,0.0,53,0.00,,---,0.00,VWS V14.00,2013-02-15 01:38:00,
2013-02-14 19:41:00,48.4,32.0,29.15,SSW,209,0.0,0.0,53,0.00,,---,0.00,VWS V14.00,2013-02-15 01:41:00,
2013-02-14 19:44:00,48.0,31.7,29.15,SSW,209,0.0,0.0,53,0.00,,---,0.00,VWS V14.00,2013-02-15 01:44:00,
2013-02-14 19:47:00,48.0,31.7,29.15,SSW,209,0.0,0.0,53,0.00,,---,0.00,VWS V14.00,2013-02-15 01:47:00,
2013-02-14 19:50:00,48.0,31.7,29.15,SSW,209,0.0,0.0,53,0.00,,---,0.00,VWS V14.00,2013-02-15 01:50:00,
2013-02-14 19:53:00,47.5,32.6,29.15,SSW,209,0.0,0.0,56,0.00,,---,0.00,VWS V14.00,2013-02-15 01:53:00,
2013-02-14 19:56:00,47.5,32.6,29.15,SSW,209,0.0,0.0,56,0.00,,---,0.00,VWS V14.00,2013-02-15 01:56:00,
2013-02-14 19:59:00,47.3,32.8,29.15,SSW,209,0.0,0.0,57,0.00,,---,0.00,VWS V14.00,2013-02-15 01:59:00,
2013-02-14 20:05:00,47.3,32.0,29.15,SSW,209,0.0,0.0,55,0.00,,---,0.00,VWS V14.00,2013-02-15 02:05:00,
2013-02-14 20:11:00,47.1,32.2,29.15,SSW,208,0.0,0.0,56,0.00,,---,0.00,VWS V14.00,2013-02-15 02:11:00,
2013-02-14 20:14:00,47.1,32.2,29.15,SSW,208,0.0,0.0,56,0.00,,---,0.00,VWS V14.00,2013-02-15 02:14:00,
2013-02-14 20:17:00,47.1,32.2,29.15,SSW,208,0.0,0.0,56,0.00,,---,0.00,VWS V14.00,2013-02-15 02:17:00,
2013-02-14 20:20:00,47.1,31.3,29.15,SSW,208,0.0,0.0,54,0.00,,---,0.00,VWS V14.00,2013-02-15 02:20:00,
2013-02-14 20:26:00,46.9,30.7,29.15,SSW,208,0.0,0.0,53,0.00,,---,0.00,VWS V14.00,2013-02-15 02:26:00,
2013-02-14 20:32:00,46.9,30.7,29.15,SSW,208,0.0,0.0,53,0.00,,---,0.00,VWS V14.00,2013-02-15 02:32:00,
2013-02-14 20:34:00,46.9,30.7,29.15,SSW,208,0.0,0.0,53,0.00,,---,0.00,VWS V14.00,2013-02-15 02:34:00,
2013-02-14 20:35:00,46.9,30.7,29.15,SSW,208,0.0,0.0,53,0.00,,---,0.00,VWS V14.00,2013-02-15 02:35:00,
2013-02-14 20:38:00,46.9,30.7,29.15,SW,225,0.0,0.0,53,0.00,,---,0.00,VWS V14.00,2013-02-15 02:38:00,
2013-02-14 20:41:00,46.9,30.7,29.15,SW,225,0.0,0.0,53,0.00,,---,0.00,VWS V14.00,2013-02-15 02:41:00,
2013-02-14 20:44:00,46.9,30.7,29.15,SW,225,0.0,0.0,53,0.00,,---,0.00,VWS V14.00,2013-02-15 02:44:00,
2013-02-14 20:47:00,46.7,30.5,29.15,SW,225,0.0,0.0,53,0.00,,---,0.00,VWS V14.00,2013-02-15 02:47:00,
2013-02-14 20:50:00,46.7,30.5,29.18,SW,225,0.0,0.0,53,0.00,,---,0.00,VWS V14.00,2013-02-15 02:50:00,
2013-02-14 20:53:00,46.7,30.5,29.18,SW,225,0.0,0.0,53,0.00,,---,0.00,VWS V14.00,2013-02-15 02:53:00,
2013-02-14 20:56:00,46.7,30.5,29.18,SW,225,0.0,0.0,53,0.00,,---,0.00,VWS V14.00,2013-02-15 02:56:00,
2013-02-14 20:59:00,46.7,30.5,29.18,SW,225,0.0,0.0,53,0.00,,---,0.00,VWS V14.00,2013-02-15 02:59:00,
2013-02-14 21:02:00,46.7,30.5,29.18,SW,225,0.0,0.0,53,0.00,,---,0.00,VWS V14.00,2013-02-15 03:02:00,
2013-02-14 21:05:00,46.7,30.5,29.18,SW,225,0.0,0.0,53,0.00,,---,0.00,VWS V14.00,2013-02-15 03:05:00,
2013-02-14 21:08:00,46.7,30.5,29.18,SW,225,0.0,0.0,53,0.00,,---,0.00,VWS V14.00,2013-02-15 03:08:00,
2013-02-14 21:11:00,46.7,30.5,29.18,SW,225,0.0,0.0,53,0.00,,---,0.00,VWS V14.00,2013-02-15 03:11:00,
2013-02-14 21:14:00,46.7,30.5,29.18,SW,225,0.0,0.0,53,0.00,,---,0.00,VWS V14.00,2013-02-15 03:14:00,
2013-02-14 21:17:00,46.7,30.5,29.18,SW,225,0.0,0.0,53,0.00,,---,0.00,VWS V14.00,2013-02-15 03:17:00,
2013-02-14 21:20:00,46.7,30.5,29.18,SW,225,0.0,0.0,53,0.00,,---,0.00,VWS V14.00,2013-02-15 03:20:00,
2013-02-14 21:23:00,46.7,30.5,29.18,SW,225,0.0,0.0,53,0.00,,---,0.00,VWS V14.00,2013-02-15 03:23:00,
2013-02-14 21:29:00,46.7,30.5,29.18,SW,225,0.0,0.0,53,0.00,,---,0.00,VWS V14.00,2013-02-15 03:29:00,
2013-02-14 21:32:00,46.7,30.5,29.18,SW,225,0.0,0.0,53,0.00,,---,0.00,VWS V14.00,2013-02-15 03:32:00,
2013-02-14 21:34:00,46.7,30.5,29.18,SW,225,0.0,0.0,53,0.00,,---,0.00,VWS V14.00,2013-02-15 03:34:00,
2013-02-14 21:38:00,46.7,30.5,29.18,SW,225,0.0,0.0,53,0.00,,---,0.00,VWS V14.00,2013-02-15 03:38:00,
2013-02-14 21:41:00,46.7,30.5,29.18,ESE,118,0.0,0.0,53,0.00,,---,0.00,VWS V14.00,2013-02-15 03:41:00,
2013-02-14 21:44:00,46.7,30.5,29.18,NNE,28,0.0,0.0,53,0.00,,---,0.00,VWS V14.00,2013-02-15 03:44:00,
2013-02-14 21:47:00,46.7,30.5,29.18,NNE,28,0.0,0.0,53,0.00,,---,0.00,VWS V14.00,2013-02-15 03:47:00,
2013-02-14 21:50:00,46.7,30.5,29.18,SW,219,0.0,0.0,53,0.00,,---,0.00,VWS V14.00,2013-02-15 03:50:00,
2013-02-14 21:56:00,46.7,30.1,29.18,NNE,19,0.0,0.0,52,0.00,,---,0.00,VWS V14.00,2013-02-15 03:56:00,
2013-02-14 21:59:00,46.7,30.1,29.18,NNE,19,0.0,0.0,52,0.00,,---,0.00,VWS V14.00,2013-02-15 03:59:00,
2013-02-14 22:02:00,46.7,30.1,29.18,NNE,19,0.0,0.0,52,0.00,,---,0.00,VWS V14.00,2013-02-15 04:02:00,
2013-02-14 22:05:00,46.7,30.1,29.18,NNE,19,0.0,0.0,52,0.00,,---,0.00,VWS V14.00,2013-02-15 04:05:00,
2013-02-14 22:11:00,46.9,30.7,29.18,NNE,19,0.0,0.0,53,0.00,,---,0.00,VWS V14.00,2013-02-15 04:11:00,
2013-02-14 22:17:00,46.9,30.7,29.18,NNE,19,0.0,0.0,53,0.00,,---,0.00,VWS V14.00,2013-02-15 04:17:00,
2013-02-14 22:20:00,46.9,30.7,29.18,NNE,19,0.0,0.0,53,0.00,,---,0.00,VWS V14.00,2013-02-15 04:20:00,
2013-02-14 22:23:00,46.9,30.7,29.18,NNE,19,0.0,0.0,53,0.00,,---,0.00,VWS V14.00,2013-02-15 04:23:00,
2013-02-14 22:26:00,46.9,30.7,29.18,NNE,19,0.0,0.0,53,0.00,,---,0.00,VWS V14.00,2013-02-15 04:26:00,
2013-02-14 22:29:00,46.7,30.1,29.18,NNE,19,0.0,0.0,52,0.00,,---,0.00,VWS V14.00,2013-02-15 04:29:00,
2013-02-14 22:35:00,46.7,30.1,29.21,NNE,19,0.0,0.0,52,0.00,,---,0.00,VWS V14.00,2013-02-15 04:35:00,
2013-02-14 22:41:00,46.4,29.7,29.21,NNE,19,0.0,0.0,52,0.00,,---,0.00,VWS V14.00,2013-02-15 04:41:00,
2013-02-14 22:44:00,46.4,29.7,29.21,South,178,0.0,0.0,52,0.00,,---,0.00,VWS V14.00,2013-02-15 04:44:00,
2013-02-14 22:47:00,46.4,29.7,29.21,South,178,0.0,0.0,52,0.00,,---,0.00,VWS V14.00,2013-02-15 04:47:00,
2013-02-14 22:50:00,46.4,29.7,29.18,South,178,0.0,0.0,52,0.00,,---,0.00,VWS V14.00,2013-02-15 04:50:00,
2013-02-14 22:56:00,46.4,29.7,29.18,SSW,199,0.0,0.0,52,0.00,,---,0.00,VWS V14.00,2013-02-15 04:56:00,
2013-02-14 22:59:00,46.4,29.7,29.18,SSW,199,0.0,0.0,52,0.00,,---,0.00,VWS V14.00,2013-02-15 04:59:00,
2013-02-14 23:02:00,46.4,29.7,29.18,SSW,203,0.0,0.0,52,0.00,,---,0.00,VWS V14.00,2013-02-15 05:02:00,
2013-02-14 23:05:00,46.4,29.7,29.21,SSW,203,0.0,0.0,52,0.00,,---,0.00,VWS V14.00,2013-02-15 05:05:00,
2013-02-14 23:08:00,46.4,29.7,29.21,SSW,203,0.0,0.0,52,0.00,,---,0.00,VWS V14.00,2013-02-15 05:08:00,
2013-02-14 23:11:00,46.4,29.7,29.21,SSW,203,0.0,0.0,52,0.00,,---,0.00,VWS V14.00,2013-02-15 05:11:00,
2013-02-14 23:14:00,46.4,29.7,29.21,SSW,203,0.0,0.0,52,0.00,,---,0.00,VWS V14.00,2013-02-15 05:14:00,
2013-02-14 23:20:00,46.4,29.7,29.21,WSW,250,3.1,3.1,52,0.00,,---,0.00,VWS V14.00,2013-02-15 05:20:00,
2013-02-14 23:23:00,46.4,29.7,29.21,WSW,250,0.0,3.1,52,0.00,,---,0.00,VWS V14.00,2013-02-15 05:23:00,
2013-02-14 23:29:00,46.4,29.7,29.21,WSW,250,0.0,3.1,52,0.00,,---,0.00,VWS V14.00,2013-02-15 05:29:00,
2013-02-14 23:35:00,46.4,29.7,29.21,SE,135,0.0,3.1,52,0.00,,---,0.00,VWS V14.00,2013-02-15 05:35:00,
2013-02-14 23:41:00,46.4,29.7,29.21,SE,135,0.0,0.0,52,0.00,,---,0.00,VWS V14.00,2013-02-15 05:41:00,
2013-02-14 23:44:00,46.4,29.7,29.21,SE,135,0.0,0.0,52,0.00,,---,0.00,VWS V14.00,2013-02-15 05:44:00,
2013-02-14 23:47:00,46.4,29.7,29.21,SE,135,0.0,0.0,52,0.00,,---,0.00,VWS V14.00,2013-02-15 05:47:00,
2013-02-14 23:50:00,46.4,29.7,29.21,SE,136,0.0,0.0,52,0.00,,---,0.00,VWS V14.00,2013-02-15 05:50:00,
2013-02-14 23:53:00,46.4,29.7,29.21,SE,136,0.0,0.0,52,0.00,,---,0.00,VWS V14.00,2013-02-15 05:53:00,
2013-02-14 23:59:00,45.3,29.2,29.21,SE,136,0.0,0.0,53,0.00,,---,0.00,VWS V14.00,2013-02-15 05:59:00,